Time,TemperatureF,DewpointF,PressureIn,WindDirection,WindDirectionDegrees,WindSpeedMPH,WindSpeedGustMPH,Humidity,HourlyPrecipIn,Conditions,Clouds,dailyrainin,SoftwareType,DateUTC
2013-07-22 00:01:00,72.0,71.0,30.03,SW,219,0.0,0.0,98,0.00,,,0.11,,2013-07-22 04:01:00,
2013-07-22 00:12:00,72.0,71.0,30.03,SW,219,0.0,0.0,98,0.00,,,0.11,,2013-07-22 04:12:00,
2013-07-22 00:22:00,72.0,71.0,30.03,SW,219,0.0,0.0,98,0.00,,,0.11,,2013-07-22 04:22:00,
2013-07-22 00:33:00,72.0,71.0,30.03,SW,219,0.0,0.0,98,0.00,,,0.11,,2013-07-22 04:33:00,
2013-07-22 00:43:00,72.0,71.0,30.03,SW,219,0.0,0.0,98,0.00,,,0.11,,2013-07-22 04:43:00,
2013-07-22 01:02:00,72.0,71.0,30.02,SW,219,0.0,0.0,97,0.00,,,0.11,,2013-07-22 05:02:00,
2013-07-22 01:11:00,72.0,71.0,30.02,SW,219,0.0,0.0,97,0.00,,,0.11,,2013-07-22 05:11:00,
2013-07-22 01:22:00,72.0,71.0,30.02,SW,219,0.0,0.0,97,0.00,,,0.11,,2013-07-22 05:22:00,
2013-07-22 01:32:00,72.0,71.0,30.02,SW,219,0.0,0.0,97,0.00,,,0.11,,2013-07-22 05:32:00,
2013-07-22 01:43:00,72.0,71.0,30.02,SW,219,0.0,0.0,97,0.00,,,0.11,,2013-07-22 05:43:00,
2013-07-22 01:52:00,72.0,71.0,30.01,WSW,250,0.0,1.0,97,0.00,,,0.11,,2013-07-22 05:52:00,
2013-07-22 02:01:00,72.0,71.0,30.01,WSW,250,0.0,0.0,97,0.00,,,0.11,,2013-07-22 06:01:00,
2013-07-22 02:11:00,72.0,71.0,30.01,WSW,250,0.0,0.0,97,0.00,,,0.11,,2013-07-22 06:11:00,
2013-07-22 02:22:00,72.0,71.0,30.00,WSW,250,0.0,0.0,98,0.00,,,0.11,,2013-07-22 06:22:00,
2013-07-22 02:33:00,72.0,71.0,30.01,WSW,250,0.0,0.0,98,0.00,,,0.11,,2013-07-22 06:33:00,
2013-07-22 02:43:00,72.0,71.0,30.01,WSW,250,0.0,0.0,98,0.00,,,0.11,,2013-07-22 06:43:00,
2013-07-22 02:52:00,72.0,71.0,30.00,WSW,250,0.0,0.0,98,0.00,,,0.11,,2013-07-22 06:52:00,
2013-07-22 03:01:00,72.0,71.0,29.99,WSW,250,0.0,0.0,98,0.00,,,0.11,,2013-07-22 07:01:00,
2013-07-22 03:12:00,72.0,71.0,29.99,WSW,250,0.0,0.0,98,0.00,,,0.11,,2013-07-22 07:12:00,
2013-07-22 03:22:00,72.0,71.0,29.99,West,275,0.0,2.0,98,0.00,,,0.11,,2013-07-22 07:22:00,
2013-07-22 03:33:00,72.0,71.0,29.99,West,278,0.0,1.0,98,0.00,,,0.11,,2013-07-22 07:33:00,
2013-07-22 03:43:00,72.0,71.0,29.99,SE,146,0.0,1.0,98,0.00,,,0.11,,2013-07-22 07:43:00,
2013-07-22 03:52:00,72.0,71.0,29.98,SE,144,0.0,0.0,98,0.00,,,0.11,,2013-07-22 07:52:00,
2013-07-22 04:02:00,71.0,70.0,29.98,SE,144,0.0,0.0,98,0.00,,,0.11,,2013-07-22 08:02:00,
2013-07-22 04:11:00,71.0,70.0,29.98,SE,144,0.0,1.0,98,0.00,,,0.11,,2013-07-22 08:11:00,
2013-07-22 04:22:00,71.0,70.0,29.98,SE,144,0.0,0.0,98,0.00,,,0.11,,2013-07-22 08:22:00,
2013-07-22 04:32:00,71.0,70.0,29.98,SE,144,0.0,0.0,98,0.00,,,0.11,,2013-07-22 08:32:00,
2013-07-22 04:43:00,71.0,70.0,29.98,ENE,67,0.0,2.0,98,0.00,,,0.11,,2013-07-22 08:43:00,
2013-07-22 04:52:00,71.0,70.0,29.98,NNE,20,0.0,2.0,98,0.00,,,0.11,,2013-07-22 08:52:00,
2013-07-22 05:02:00,71.0,70.0,29.98,North,355,0.0,0.0,98,0.00,,,0.11,,2013-07-22 09:02:00,
2013-07-22 05:11:00,71.0,70.0,29.98,East,80,0.0,2.0,98,0.00,,,0.11,,2013-07-22 09:11:00,
2013-07-22 05:22:00,71.0,70.0,29.98,NNW,336,0.0,1.0,98,0.00,,,0.11,,2013-07-22 09:22:00,
2013-07-22 05:33:00,71.0,70.0,29.99,NW,319,0.0,1.0,98,0.00,,,0.11,,2013-07-22 09:33:00,
2013-07-22 05:42:00,71.0,70.0,29.99,West,273,0.0,2.0,98,0.00,,,0.11,,2013-07-22 09:42:00,
2013-07-22 05:52:00,71.0,70.0,29.99,West,273,0.0,1.0,98,0.00,,,0.11,,2013-07-22 09:52:00,
2013-07-22 06:02:00,71.0,70.0,29.98,WNW,296,0.0,2.0,97,0.00,,,0.11,,2013-07-22 10:02:00,
2013-07-22 06:11:00,71.0,70.0,29.98,WNW,293,0.0,3.0,97,0.00,,,0.11,,2013-07-22 10:11:00,
2013-07-22 06:22:00,71.0,70.0,29.99,NNW,345,0.0,2.0,97,0.00,,,0.11,,2013-07-22 10:22:00,
2013-07-22 06:32:00,70.0,69.0,29.99,NNW,345,0.0,1.0,97,0.00,,,0.11,,2013-07-22 10:32:00,
2013-07-22 06:43:00,71.0,70.0,29.99,NNW,345,0.0,1.0,97,0.00,,,0.11,,2013-07-22 10:43:00,
2013-07-22 06:52:00,71.0,70.0,29.99,NNW,345,0.0,0.0,97,0.00,,,0.11,,2013-07-22 10:52:00,
2013-07-22 07:02:00,71.0,70.0,30.00,NNW,345,0.0,0.0,97,0.00,,,0.11,,2013-07-22 11:02:00,
2013-07-22 07:11:00,71.0,70.0,30.00,NW,322,0.0,1.0,97,0.00,,,0.11,,2013-07-22 11:11:00,
2013-07-22 07:23:00,71.0,70.0,30.01,NW,322,0.0,1.0,97,0.00,,,0.11,,2013-07-22 11:23:00,
2013-07-22 07:32:00,71.0,70.0,30.01,WNW,292,0.0,1.0,97,0.00,,,0.11,,2013-07-22 11:32:00,
2013-07-22 07:43:00,71.0,70.0,30.01,NNW,338,0.0,2.0,97,0.00,,,0.11,,2013-07-22 11:43:00,
2013-07-22 07:52:00,71.0,70.0,30.01,NNW,338,0.0,1.0,97,0.00,,,0.11,,2013-07-22 11:52:00,
2013-07-22 08:02:00,71.0,70.0,30.01,NNW,338,0.0,0.0,97,0.00,,,0.11,,2013-07-22 12:02:00,
2013-07-22 08:11:00,71.0,70.0,30.01,NNW,333,0.0,0.0,97,0.00,,,0.11,,2013-07-22 12:11:00,
2013-07-22 08:22:00,71.0,70.0,30.01,NNW,333,0.0,0.0,97,0.00,,,0.11,,2013-07-22 12:22:00,
2013-07-22 08:33:00,71.0,70.0,30.01,NNW,333,0.0,0.0,96,0.00,,,0.11,,2013-07-22 12:33:00,
2013-07-22 08:43:00,71.0,70.0,30.01,NNW,333,0.0,1.0,96,0.00,,,0.11,,2013-07-22 12:43:00,
2013-07-22 08:53:00,72.0,70.0,30.02,NNW,333,0.0,0.0,95,0.00,,,0.11,,2013-07-22 12:53:00,
2013-07-22 09:01:00,72.0,70.0,30.01,NNW,346,0.0,1.0,95,0.00,,,0.11,,2013-07-22 13:01:00,
2013-07-22 09:11:00,72.0,70.0,30.01,NNW,346,0.0,1.0,95,0.00,,,0.11,,2013-07-22 13:11:00,
2013-07-22 09:43:00,73.0,71.0,30.02,WNW,298,0.0,1.0,93,0.00,,,0.11,,2013-07-22 13:43:00,
2013-07-22 09:53:00,73.0,71.0,30.02,West,280,0.0,3.0,92,0.00,,,0.11,,2013-07-22 13:53:00,
2013-07-22 10:32:00,74.0,71.0,30.02,WSW,250,0.0,3.0,90,0.00,,,0.11,,2013-07-22 14:32:00,
2013-07-22 10:53:00,74.0,71.0,30.01,SSE,167,0.0,2.0,90,0.00,,,0.11,,2013-07-22 14:53:00,
2013-07-22 11:52:00,76.0,72.0,30.02,West,269,0.0,2.0,87,0.00,,,0.11,,2013-07-22 15:52:00,
2013-07-22 12:43:00,77.0,73.0,30.01,WNW,300,0.0,4.0,87,0.00,,,0.11,,2013-07-22 16:43:00,
2013-07-22 13:43:00,80.0,73.0,29.99,NNW,338,1.0,5.0,80,0.00,,,0.11,,2013-07-22 17:43:00,
2013-07-22 13:52:00,81.0,75.0,29.98,WSW,245,1.0,5.0,81,0.00,,,0.11,,2013-07-22 17:52:00,
2013-07-22 17:43:00,85.0,73.0,29.90,WNW,301,2.0,9.0,67,0.00,,,0.27,,2013-07-22 21:43:00,
2013-07-22 18:43:00,83.0,71.0,29.89,NW,312,1.0,6.0,67,0.00,,,0.27,,2013-07-22 22:43:00,
2013-07-22 19:01:00,82.0,72.0,29.90,West,268,1.0,3.0,71,0.00,,,0.27,,2013-07-22 23:01:00,
2013-07-22 19:32:00,80.0,68.0,29.91,WNW,296,0.0,2.0,68,0.00,,,0.26,,2013-07-22 23:32:00,
2013-07-22 19:42:00,80.0,68.0,29.91,WNW,296,0.0,3.0,67,0.00,,,0.26,,2013-07-22 23:42:00,
2013-07-22 19:52:00,79.0,69.0,29.91,WNW,283,0.0,2.0,71,0.00,,,0.26,,2013-07-22 23:52:00,
2013-07-22 20:01:00,79.0,69.0,29.93,WNW,286,1.0,2.0,71,0.00,,,0.26,,2013-07-23 00:01:00,
2013-07-22 20:12:00,79.0,70.0,29.93,WNW,300,0.0,3.0,74,0.00,,,0.26,,2013-07-23 00:12:00,
2013-07-22 20:32:00,78.0,69.0,29.94,SW,227,0.0,3.0,73,0.00,,,0.26,,2013-07-23 00:32:00,
2013-07-22 20:43:00,78.0,69.0,29.94,West,268,0.0,3.0,73,0.00,,,0.26,,2013-07-23 00:43:00,
2013-07-22 20:52:00,78.0,69.0,29.95,West,268,0.0,2.0,74,0.00,,,0.26,,2013-07-23 00:52:00,
2013-07-22 21:01:00,77.0,68.0,29.95,WSW,248,0.0,1.0,74,0.00,,,0.26,,2013-07-23 01:01:00,
2013-07-22 21:43:00,77.0,69.0,29.96,WNW,293,1.0,5.0,76,0.00,,,0.26,,2013-07-23 01:43:00,
2013-07-22 23:43:00,73.0,68.0,29.96,WNW,285,0.0,0.0,85,0.00,,,0.26,,2013-07-23 03:43:00,